Terminal Aerodrome Forecast
Issued by NWS

Home | Current Version | Previous Version | Text Only | Print | Product List | Glossary On
Versions: 1 2 3 4 5 6 7 8 9 10 11 12
000
FTUS42 TJSJ 062340
TAFJPS
TAF
TJPS 062340Z 0700/0724 12009KT P6SM FEW020 SCT060
     FM070330 VRB05KT P6SM FEW040
     FM071330 13012G25KT P6SM FEW030 FEW050
      AMD NOT SKED TIL 070300=

USA.gov is the U.S. government's official web portal to all federal, state and local government web resources and services.